This demonstration page uses our WeatherBlox Daily Observations layout. Learn more.

Left ArrowRight Arrow

44.8408, -93.29828

Hourly Observations for September 1, 2017

Temp ( °F °C ) Dew Point ( °F °C ) Humidity (%) Winds ( mph kmh ) Pressure ( in mb ) Visibility ( mi km ) Precip ( " mm )
12:53 am 00:53 Clear 58 14.4 53 11.7 84 84 ESE 8 13 30.18 1022 7 11 0.00 0.00
1:53 am 01:53 Clear with Mist and Fog 56 13.3 54 12.2 93 93 SE 5 7 30.18 1022 6 10 0.00 0.00
2:53 am 02:53 Clear with Mist and Fog 55 12.8 53 11.7 93 93 SE 7 11 30.18 1022 6 10 0.00 0.00
3:53 am 03:53 Clear with Mist and Fog 54 12.2 52 11.1 93 93 SE 7 11 30.18 1022 4 6 0.00 0.00
4:53 am 04:53 Clear with Mist and Fog 54 12.2 52 11.1 93 93 SE 9 15 30.18 1022 6 10 0.00 0.00
5:53 am 05:53 Clear 54 12.2 51 10.6 90 90 SE 12 19 30.19 1022 9 14 0.00 0.00
6:53 am 06:53 Sunny 53 11.7 51 10.6 93 93 SSE 9 15 30.19 1022 8 13 0.00 0.00
7:53 am 07:53 Sunny 53 11.7 51 10.6 93 93 VRB 6 9 30.20 1023 9 14 0.00 0.00
8:53 am 08:53 Sunny 55 12.8 50 10 83 83 SE 9 15 30.19 1022 10 16 0.00 0.00
9:53 am 09:53 Sunny 58 14.4 51 10.6 78 78 SE 10 17 30.18 1022 10 16 0.00 0.00
10:53 am 10:53 Sunny 62 16.7 51 10.6 67 67 S 13 20 30.16 1021 10 16 0.00 0.00
11:53 am 11:53 Sunny 65 18.3 50 10 59 59 S 14 22 30.15 1021 10 16 0.00 0.00
12:53 pm 12:53 Mostly Sunny 67 19.4 53 11.7 61 61 SSE 13 20 30.13 1020 9 14 0.00 0.00
1:53 pm 13:53 Partly Cloudy 69 20.6 55 12.8 61 61 SSE 12 19 30.12 1020 9 14 0.00 0.00
2:53 pm 14:53 Partly Cloudy 70 21.1 54 12.2 57 57 SSE 12 19 30.09 1019 9 14 0.00 0.00
3:53 pm 15:53 Mostly Cloudy 72 22.2 55 12.8 55 55 SSE 12 19 30.07 1018 8 13 0.00 0.00
4:53 pm 16:53 Mostly Cloudy 72 22.2 57 13.9 59 59 SSE 14 22 30.06 1018 9 14 0.00 0.00
5:53 pm 17:53 Mostly Cloudy 71 21.7 58 14.4 63 63 SSE 13 20 30.05 1018 9 14 0.00 0.00
6:53 pm 18:53 Mostly Cloudy 70 21.1 58 14.4 66 66 S 9 15 30.04 1017 9 14 0.00 0.00
7:53 pm 19:53 Cloudy 69 20.6 57 13.9 66 66 SSE 9 15 30.03 1017 9 14 0.00 0.00
8:53 pm 20:53 Cloudy 69 20.6 57 13.9 66 66 S 12 19 30.04 1017 8 13 0.00 0.00
9:53 pm 21:53 Mostly Cloudy 68 20 57 13.9 68 68 S 13 20 30.04 1017 7 11 0.00 0.00
10:53 pm 22:53 Cloudy with Haze 66 18.9 58 14.4 75 75 S 10 17 30.02 1017 6 10 0.00 0.03
11:53 pm 23:53 Cloudy with Haze 66 18.9 57 13.9 73 73 S 9 15 30.01 1016 6 10 0.00 0.00

Powered by AerisWeather